Regional Weather Roundup
Issued by NWS Northern Indiana

Home | Current Version | Previous Version | Text Only | Print | Product List | Glossary Off
Versions: 1 2 3 4 5 6 7 8 9 10 11 12 13 14 15 16 17 18 19 20 21 22 23 24 25 26 27 28 29 30 31 32 33 34 35 36 37 38 39 40 41 42 43 44 45 46 47 48 49 50

000
ASUS43 KIWX 030410
RWRIWX

KIWX WEATHER ROUNDUP
NATIONAL WEATHER SERVICE NORTHERN INDIANA
1200 AM EDT WED JUN 03 2015

NOTE: "FAIR" INDICATES FEW OR NO CLOUDS BELOW 12,000 FEET WITH NO
SIGNIFICANT WEATHER AND/OR OBSTRUCTIONS TO VISIBILITY.

* THESE STATIONS ARE NOT UNDER NWS QUALITY CONTROL. THEY ALSO MAY NOT
  REPORT WEATHER SUCH AS PRECIPITATION OR FOG.

INZ001>027-030500-
NORTHERN INDIANA

CITY           SKY/WX    TMP DP  RH WIND       PRES   REMARKS
GARY*          CLEAR     54  50  86 CALM      30.11F
VALPARAISO     CLEAR     55  48  77 CALM      30.11F
MICHIGAN CITY* CLEAR     50  50 100 CALM      30.12S
LAPORTE*       CLEAR     56  50  81 CALM      30.12S
KNOX*          CLEAR     55  55 100 E5        30.11S
SOUTH BEND     CLEAR     62  50  64 SE7       30.13S
GOSHEN         CLEAR     57  46  66 E9        30.12F
MONTICELLO*    CLEAR     55  54  99 CALM      30.10S
LOGANSPORT*    MOCLDY    59  50  72 E6        30.11F
ROCHESTER*     CLEAR     59  52  77 E5        30.12S
WARSAW*        CLEAR     55  48  76 E6        30.13R
ANGOLA*        CLEAR     54  45  71 CALM      30.15S
FORT WAYNE     CLEAR     53  47  79 E7        30.13F
HUNTINGTON*    CLEAR     55  47  74 E5        30.12F
PERU/GRISSOM   MOCLDY    60  53  78 E7        30.10S
MARION*        MOCLDY    57  51  80 E7        30.11F

$$
INZ028>050-030500-
CENTRAL INDIANA

CITY           SKY/WX    TMP DP  RH WIND       PRES   REMARKS
LAFAYETTE      CLEAR     53  51  93 CALM      30.10S
KOKOMO*        MOCLDY    57  52  82 E6        30.11S
MUNCIE*        CLEAR     56  52  86 NE7       30.11S
INDIANAPOLIS   PTCLDY    57  50  77 SE3       30.08F

$$
MIZ043>046-050>051-056>058-064>065-071>073-077>080-030500-
SOUTHWEST LOWER MICHIGAN

CITY           SKY/WX    TMP DP  RH WIND       PRES   REMARKS
BATTLE CREEK   CLEAR     58  45  62 S6        30.15R
BENTON HARBOR  CLEAR     48  46  93 E3        30.11F
COLDWATER*     CLEAR     54  42  63 CALM      30.15R
HILLSDALE*     CLEAR     51  45  80 E5        30.15F
HOLLAND        CLEAR     52  45  77 CALM      30.12F
GRAND RAPIDS   CLEAR     56  50  80 S6        30.12S
KALAMAZOO      CLEAR     60  44  55 S6        30.14S
STURGIS*       CLEAR     57  43  58 SE7       30.14S
THREE RIVERS*  FAIR      59  43  54 SE6       30.14S

$$
OHZ001>008-015>018-024>025-030500-
NORTHWEST OHIO

CITY           SKY/WX    TMP DP  RH WIND       PRES   REMARKS
WAUSEON*       FAIR      55  48  76 NE5       30.15S
DEFIANCE       CLEAR     53  44  71 N5        30.14S
FINDLAY        PTCLDY    56  49  77 E8        30.12F
TOLEDO EXPRESS CLEAR     50  46  86 CALM      30.14S
TOLEDO METCALF CLEAR     55  48  77 NE5       30.15F
LIMA           PTCLDY    53  49  86 E6        30.12F

$$
AND FOR LAKE MICHIGAN COASTAL AND OPEN LAKE BUOY OBSERVATIONS

STATION/POSITION TEMP    WIND        PRES    VSBY  WAVE
                 AIR SEA DIR/SP/G                  HT/PER
                 (F)     (DEG/KT/KT) (MB)    (MI)  (FT/S)
CALUMET HARBOR    56      90/  4/  5   N/A
MICHIGAN CITY     56      60/  6/  7   N/A
BURNS HARBOR              90/  8/  9 1019.6F
SAINT JOSEPH      53      CALM  /  2 1019.6F
SOUTH LAKE BUOY   43 38   90/  6/  8 1020.0F         0
4 MI NW BRIDGMAN  55 55  100/  6/  6   N/A           1
MICHIGAN CITY     57 56  110/  6/  8   N/A           1/ 3

$$
&&


USA.gov is the U.S. government's official web portal to all federal, state and local government web resources and services.